Wind_Speed
7 5 3 2 2 2 2 3 3 4 5 7 7 6 7 10 13 15 16 17 18 18 18 18 18 19 19 19 20 20 20 20 20 19 19 19 18 17 16 16 15 16 15 17 17 17 18 17 16 16 17 15 15 17 18 21 22 20 22 19 11 14 13 9 12 19 28 31 31 32 27 24 24 23 24 23 23 24 22 21 19 18 16 14 16 17 16 15
8 6 4 3 3 2 2 3 3 4 4 4 3 5 9 12 14 16 17 17 17 17 17 17 17 18 18 19 19 19 20 20 18 17 19 19 18 18 17 16 15 16 17 18 19 21 21 17 17 16 16 16 13 16 18 20 22 21 21 11 7 17 15 9 17 23 29 32 28 30 28 24 24 22 21 20 22 23 23 21 17 17 15 13 15 16 15 14
9 8 7 6 6 6 6 5 4 2 1 0 4 8 12 14 16 17 17 17 16 17 16 16 17 18 18 18 18 20 19 18 17 18 19 18 17 17 17 16 16 15 16 17 16 22 22 18 18 16 16 16 12 14 16 17 18 19 17 6 10 17 15 13 22 27 29 31 23 23 27 24 23 21 19 19 21 21 21 19 15 14 14 14 17 17 16 15
11 10 10 9 9 9 8 7 6 4 4 6 9 13 15 16 17 17 17 17 16 16 16 16 17 17 17 18 19 19 17 18 20 19 18 17 16 16 15 15 15 14 16 15 14 21 23 18 18 17 15 12 12 15 15 16 16 12 10 9 12 13 7 13 21 24 22 23 18 16 20 20 19 18 17 17 17 17 17 15 13 13 14 15 17 17 15 13
13 12 12 11 11 11 11 11 11 10 10 12 15 16 18 18 18 18 17 17 17 17 16 16 16 16 17 19 19 17 17 20 21 21 18 17 16 15 14 13 14 14 15 15 15 19 19 16 16 15 12 4 10 16 15 18 17 9 4 5 9 14 5 18 20 23 17 11 11 11 12 14 13 12 13 14 14 15 15 13 13 13 14 15 15 14 11 10
15 14 13 12 13 13 14 15 15 15 16 18 19 20 21 20 19 18 18 18 18 18 16 16 16 16 17 18 18 18 19 20 21 23 20 17 17 16 15 13 13 14 13 14 17 18 17 15 13 13 8 5 8 12 15 17 14 6 1 5 9 11 8 23 22 19 13 8 9 8 8 11 13 13 12 13 14 14 12 10 9 9 10 11 11 9 7 6
16 15 14 14 14 15 16 17 18 19 20 21 22 22 22 20 19 18 18 18 18 17 15 16 16 17 18 17 17 19 20 20 21 23 21 19 18 17 17 15 15 14 11 14 20 20 17 13 10 13 8 3 6 8 12 14 11 5 2 3 11 6 14 27 21 11 6 7 8 8 7 9 13 14 12 12 12 8 7 6 5 4 6 7 7 6 6 4
16 15 15 15 16 17 18 19 20 21 22 23 23 22 21 19 18 18 18 17 17 16 15 17 18 18 17 16 17 20 21 20 21 22 21 21 20 19 19 17 16 14 9 13 20 18 14 11 7 13 9 4 7 10 13 12 6 6 6 8 12 14 22 23 16 8 6 6 5 8 8 8 10 12 10 8 7 8 7 4 2 1 2 3 2 2 3 2
17 16 17 17 18 19 19 21 22 23 23 23 22 21 20 18 18 18 17 17 16 15 16 18 19 18 17 17 20 22 20 19 20 20 20 21 21 22 21 19 19 15 11 14 17 15 12 9 7 8 8 8 7 10 14 10 2 7 11 10 14 21 21 15 10 10 10 6 4 8 8 7 7 8 8 5 7 10 7 3 3 3 3 4 3 5 4 4
18 18 19 19 20 21 21 23 23 24 23 22 21 19 18 17 17 17 17 16 16 16 18 19 19 18 19 20 22 21 18 17 19 19 19 21 21 22 22 21 21 17 16 17 13 13 13 11 9 7 6 10 9 9 12 7 7 12 11 9 14 17 14 10 7 10 10 5 2 7 7 5 5 5 8 7 6 7 7 5 6 5 3 3 3 6 9 8
19 19 20 21 21 22 23 24 24 23 23 22 20 18 17 16 16 16 16 16 16 17 18 18 19 20 21 22 22 19 16 17 18 18 19 19 20 21 21 22 22 18 16 19 13 11 14 11 13 13 8 8 8 5 5 5 10 12 15 11 12 14 8 5 4 6 5 3 3 5 6 4 3 4 6 6 5 6 7 7 6 5 3 4 4 5 6 6
20 20 21 21 22 23 24 24 23 23 22 20 18 17 16 16 15 15 15 15 15 16 17 18 19 19 21 22 21 18 16 18 18 18 18 18 19 20 20 21 22 18 16 21 17 13 15 13 16 17 9 9 8 1 3 8 8 10 15 12 10 12 5 3 4 3 2 2 4 5 6 5 5 4 4 3 3 2 5 7 6 5 5 6 6 5 4 4
21 21 21 22 23 23 23 22 22 22 21 19 17 16 16 15 15 15 15 15 15 16 17 18 19 18 20 21 19 17 17 18 18 18 18 17 18 18 19 18 19 19 17 19 19 16 13 11 13 11 6 7 3 3 6 8 6 6 9 9 11 9 8 3 3 3 4 5 4 5 6 5 6 6 7 5 2 1 3 6 6 4 4 4 5 7 8 6
21 21 21 22 23 23 22 21 21 20 19 17 16 16 15 14 14 14 14 15 15 16 17 18 18 18 21 20 16 17 17 17 18 18 17 16 16 17 18 16 17 18 17 18 17 17 14 11 13 8 4 4 2 4 8 7 7 7 6 8 9 9 9 7 6 6 6 5 4 6 7 5 5 7 7 7 4 4 3 3 5 4 3 4 4 6 9 9
21 21 21 22 23 22 21 20 19 19 18 17 16 15 14 14 14 14 14 14 15 17 17 18 16 16 20 19 14 16 16 16 17 17 18 16 13 15 16 14 15 15 15 16 14 15 13 11 13 6 0 4 6 8 8 5 7 9 7 7 7 11 11 11 13 11 7 7 7 7 7 5 4 4 6 8 6 6 5 2 3 4 4 4 4 3 5 8
21 21 21 22 22 21 20 19 18 17 16 16 16 15 14 13 13 13 14 14 15 16 16 15 14 16 19 17 14 15 14 15 17 16 17 15 12 15 15 12 14 15 14 15 14 14 12 9 10 6 3 2 2 4 10 9 9 11 13 11 9 13 12 13 15 10 8 9 8 7 7 7 3 3 8 8 7 7 6 3 2 4 3 3 3 2 4 7
20 20 21 21 21 20 19 18 17 16 16 16 15 14 14 13 13 13 14 14 15 16 14 13 14 15 17 15 12 11 13 15 15 14 15 14 13 14 14 12 14 15 14 14 13 10 10 7 4 4 8 9 4 5 10 11 12 16 18 17 16 14 9 11 14 10 10 11 8 8 8 8 7 5 6 7 10 4 3 2 1 1 2 2 2 3 3 5
20 20 20 20 20 19 19 17 16 15 15 15 15 14 14 14 13 13 13 14 14 15 14 14 14 15 15 13 10 10 13 14 12 13 13 13 14 13 11 11 13 14 12 12 12 8 6 2 3 5 3 9 5 8 10 9 12 16 19 20 18 18 14 11 14 10 11 13 12 13 10 8 8 8 8 3 2 3 2 2 1 1 1 2 3 4 4 5
20 19 19 19 19 18 17 16 15 15 14 14 15 15 15 15 14 13 13 14 13 14 14 13 13 14 12 10 9 11 12 12 11 12 11 12 12 12 12 12 12 13 9 11 12 7 7 5 2 8 5 2 1 9 11 11 10 13 19 21 19 18 19 21 19 11 12 14 14 15 12 9 8 7 9 8 6 5 3 1 2 2 1 2 4 5 5 6
20 19 19 18 18 17 17 16 15 14 13 13 12 13 14 13 14 15 14 14 15 15 14 13 12 12 10 8 8 8 10 12 12 11 10 9 9 10 13 12 13 14 11 8 6 4 7 8 6 7 7 6 8 10 11 14 15 12 15 18 18 17 21 26 23 15 16 18 18 17 13 11 10 7 7 7 5 6 5 4 4 4 3 2 3 4 6 7
19 19 18 18 17 17 16 15 14 13 12 11 10 10 13 12 13 16 15 15 16 14 13 13 12 11 10 10 7 5 11 14 11 11 9 7 9 13 12 11 11 12 10 4 5 6 6 9 7 6 8 9 10 9 11 17 16 13 14 15 15 17 18 20 18 14 14 17 18 16 13 13 11 9 7 5 5 5 5 5 6 5 4 4 3 4 5 6
19 19 18 17 16 15 15 13 12 12 11 12 12 12 14 14 14 17 15 15 16 13 11 12 12 11 10 10 9 8 12 12 9 10 10 9 11 11 8 8 9 6 6 5 7 9 6 9 10 8 8 9 9 8 11 13 12 13 14 14 14 15 16 17 17 12 13 17 17 14 14 14 11 10 6 3 3 3 4 6 6 5 4 5 5 4 6 7
19 18 17 16 15 14 13 12 10 10 10 11 11 11 12 13 14 16 14 13 14 12 12 12 12 11 9 10 11 11 11 9 8 10 11 10 10 7 6 7 7 5 5 7 7 6 7 11 12 9 8 7 6 5 6 6 7 10 11 12 13 14 15 18 17 14 13 15 16 14 15 15 10 9 7 4 4 5 4 4 4 3 3 4 4 4 4 5
18 17 16 14 13 12 11 10 9 9 9 10 11 10 9 10 12 13 12 11 13 13 12 12 10 9 10 10 10 11 11 9 7 9 9 10 10 8 7 6 6 8 8 7 7 6 8 12 12 11 8 6 4 2 2 4 5 6 7 10 12 12 12 15 15 13 12 13 14 14 14 14 11 8 6 5 5 5 5 3 3 3 4 5 4 2 2 4
17 16 15 13 12 11 9 9 8 8 8 8 9 9 7 8 10 11 10 10 13 13 9 9 9 8 10 9 8 11 11 9 8 9 9 10 10 9 8 7 6 7 6 6 7 8 11 13 12 10 10 8 5 3 2 2 2 2 4 7 9 8 9 12 14 14 13 11 13 15 13 12 11 9 6 4 4 4 3 3 3 4 4 4 2 1 2 4
17 15 14 13 11 10 8 7 7 7 8 8 8 8 8 8 9 10 10 10 11 11 9 9 9 9 10 9 9 10 9 10 10 10 10 10 10 10 8 6 6 6 4 5 7 8 12 15 12 10 12 11 9 7 6 4 3 3 2 3 4 6 7 9 12 13 12 10 12 15 12 10 11 10 7 5 5 5 4 4 4 3 3 2 1 3 4 6
17 15 13 12 11 9 8 7 6 6 7 8 7 7 8 9 10 11 10 9 10 9 9 9 9 9 10 10 9 9 9 10 9 9 11 12 11 10 9 5 5 7 4 5 9 10 12 15 14 16 16 14 13 11 10 8 7 7 7 6 6 6 6 7 10 11 11 11 12 14 12 9 9 9 8 6 5 4 4 3 2 1 2 2 3 5 6 7
17 15 13 12 10 9 7 6 5 5 7 8 8 7 7 9 11 10 9 9 9 8 8 9 8 9 10 11 12 11 10 9 9 11 12 12 11 10 10 8 6 8 7 6 10 11 13 15 16 18 19 17 17 15 14 13 12 12 11 11 9 7 6 8 9 9 9 10 10 10 11 8 8 7 7 6 5 4 4 4 3 3 3 4 6 7 8 8
16 14 13 11 10 8 7 6 5 6 7 8 8 8 8 9 10 9 8 8 10 10 9 9 9 9 9 11 13 13 11 11 11 11 11 11 11 10 10 10 8 9 9 9 11 11 13 15 15 17 19 20 19 19 18 17 16 16 15 15 13 11 9 9 9 8 7 8 8 6 8 8 6 6 6 6 6 5 6 6 6 6 6 7 8 9 10 10
15 13 12 11 9 8 6 5 5 6 7 7 8 8 8 9 9 8 9 9 11 11 10 10 11 11 12 12 12 12 12 12 11 11 11 12 11 10 9 8 7 9 10 10 11 12 12 13 14 15 15 18 20 19 18 18 17 19 19 18 17 16 12 11 10 7 6 6 7 6 6 6 5 6 7 7 6 5 6 7 7 8 8 8 9 10 11 11
13 12 11 10 9 7 6 6 5 6 7 7 8 7 8 9 8 9 10 10 10 9 9 12 12 13 13 12 10 11 11 11 11 12 12 12 11 11 11 8 7 7 8 9 10 11 13 13 13 12 11 15 18 17 16 15 14 17 19 17 16 15 12 10 8 6 5 5 7 5 3 3 3 5 6 7 7 7 7 7 6 7 7 7 8 10 11 10
12 11 10 9 9 8 7 6 6 6 7 7 7 8 8 7 9 12 11 10 10 9 9 12 12 11 11 11 11 11 10 11 12 12 12 12 11 13 13 11 8 6 7 7 7 9 12 12 12 11 9 11 14 14 14 13 11 13 16 13 11 11 10 9 7 4 3 5 5 2 0 1 2 3 3 5 5 5 6 5 5 6 6 6 7 10 11 9
12 11 10 9 9 8 7 7 7 6 7 7 7 8 7 7 12 13 10 9 10 9 10 11 11 11 10 11 12 10 10 11 11 11 11 11 11 11 11 10 8 8 9 8 5 7 9 10 10 10 9 10 11 10 10 10 9 10 11 10 8 8 9 8 6 4 4 5 3 1 1 1 4 6 5 5 4 3 3 4 5 6 6 6 6 8 10 9
12 11 10 10 9 9 8 7 7 6 6 7 8 8 9 10 13 11 9 10 10 10 11 10 10 12 13 12 12 10 10 11 10 10 11 11 11 10 9 9 8 8 9 7 5 5 8 8 8 9 10 11 9 8 8 9 9 8 8 7 7 7 6 5 5 4 5 5 3 4 5 6 6 6 5 4 3 2 2 4 4 4 6 7 8 8 8 9
12 11 10 10 10 9 9 8 7 7 6 7 8 8 9 10 10 9 10 11 11 11 11 8 8 12 13 12 11 10 10 11 10 10 10 10 10 9 8 9 9 10 9 5 4 6 5 5 7 8 9 9 8 8 8 8 8 7 7 6 5 5 4 4 4 4 4 3 2 4 6 7 6 4 4 3 2 2 3 4 4 3 4 7 9 9 10 9
13 12 11 11 10 10 9 8 8 7 7 7 8 7 7 9 9 9 10 10 9 10 10 10 10 11 10 10 11 11 10 10 10 9 9 8 8 7 8 8 9 10 10 7 7 8 6 5 7 7 8 8 8 7 7 8 8 7 6 5 5 5 4 4 4 3 3 1 2 4 4 6 6 5 4 3 3 3 4 5 5 5 6 8 9 10 11 11
13 12 11 11 11 10 9 8 8 8 6 6 6 7 9 10 10 9 9 8 9 9 8 9 11 10 9 10 12 12 10 9 9 10 9 7 6 6 6 7 8 9 9 8 8 8 7 7 7 7 7 8 7 7 7 8 7 6 6 6 5 5 4 4 3 3 2 2 3 4 4 4 5 5 5 4 4 4 5 6 6 7 9 10 10 11 11 11
13 13 12 11 11 10 10 9 8 8 7 7 8 8 8 10 9 8 8 8 8 8 8 9 9 9 10 11 12 12 12 10 10 10 8 6 6 5 5 6 7 8 8 9 9 9 8 7 7 7 6 6 5 6 6 7 6 5 5 5 3 3 3 3 2 2 1 2 3 3 4 4 4 5 5 4 6 6 6 8 8 8 10 11 11 12 11 12
14 14 13 12 11 11 10 9 8 8 8 8 8 8 7 7 7 7 7 7 7 7 7 9 9 9 10 12 12 12 13 11 10 9 8 7 6 5 6 6 6 6 7 8 9 10 9 8 8 7 6 5 4 3 4 6 6 5 5 4 3 2 2 2 1 1 2 3 3 3 5 5 5 6 6 6 8 8 8 9 10 10 10 11 12 12 12 13
15 14 12 12 12 11 11 10 9 9 9 7 7 7 7 7 6 6 6 5 6 6 7 8 8 9 11 12 13 13 12 11 11 10 10 9 7 6 5 5 5 5 6 7 8 9 9 8 8 7 6 5 4 3 3 5 4 3 3 3 3 4 3 3 3 1 1 2 4 5 5 6 6 6 7 8 9 9 10 10 11 12 12 12 13 14 14 14
15 14 13 12 12 12 11 11 9 10 9 7 7 8 7 6 6 5 5 4 4 5 6 7 8 10 11 12 13 13 12 12 12 12 12 11 9 7 5 5 4 5 6 6 7 8 9 10 9 8 7 6 4 3 2 3 3 3 2 2 3 4 4 4 3 3 4 3 4 6 6 7 9 9 9 11 11 11 11 11 12 12 13 13 14 15 16 16
15 14 13 13 12 12 12 11 11 10 9 8 8 8 6 6 5 4 4 3 2 4 5 6 8 10 11 12 13 13 13 13 13 13 13 12 11 9 6 5 5 5 5 5 6 7 8 9 10 10 8 5 4 3 2 2 3 3 3 3 4 4 4 4 3 4 6 5 4 7 9 8 10 12 11 11 12 13 13 12 13 13 13 14 14 15 16 17
14 13 12 12 12 13 12 12 12 11 9 9 9 7 6 6 5 4 4 2 1 3 4 5 7 9 11 12 13 13 13 14 14 14 14 14 13 11 9 7 5 5 6 5 6 6 6 7 7 7 7 5 4 3 2 1 1 2 2 3 4 4 4 5 4 4 6 5 4 8 11 8 9 12 11 11 11 13 14 13 13 14 13 15 16 15 15 16
15 13 12 12 12 13 13 13 13 11 10 10 9 7 6 5 4 4 3 2 1 2 3 4 6 9 10 12 12 13 14 13 13 14 14 14 14 13 11 9 7 7 6 6 6 6 6 7 7 6 6 6 6 4 3 2 1 1 0 1 2 3 4 6 6 5 6 6 7 11 11 8 9 11 11 12 11 10 12 13 13 14 14 14 15 15 15 15
15 14 12 12 12 12 12 12 13 12 12 11 10 8 7 5 4 4 3 3 1 1 2 4 6 8 10 11 12 13 13 12 12 13 13 13 14 13 13 11 9 8 6 6 6 6 7 8 7 7 7 8 7 6 5 4 4 3 2 1 2 3 4 6 7 7 8 8 9 13 11 9 11 12 12 13 12 10 11 11 12 13 13 14 15 15 16 16
16 15 14 13 13 12 12 12 12 12 12 11 10 9 7 5 4 4 3 3 2 1 2 4 6 8 9 10 11 12 12 12 11 11 12 13 13 13 13 12 10 9 8 7 6 6 6 7 7 7 7 7 7 7 7 6 6 4 3 3 3 4 5 6 7 8 9 8 7 10 11 11 13 12 12 13 14 13 13 12 13 13 13 14 15 15 17 18
17 16 15 14 13 12 12 12 12 12 12 12 11 10 8 6 5 4 4 3 2 1 2 3 5 7 9 10 11 11 11 11 10 10 11 11 11 12 12 12 11 10 9 8 7 7 7 7 6 6 6 6 7 7 7 7 7 6 5 5 5 5 6 6 7 7 9 10 8 7 10 13 14 13 12 13 13 13 13 13 14 14 14 15 15 16 18 19
20 18 17 16 15 14 12 12 12 13 13 12 11 11 9 7 6 5 5 4 3 1 1 3 5 7 8 9 10 11 11 11 10 9 9 9 10 10 10 11 11 10 10 10 9 8 8 8 7 6 6 6 7 7 7 7 7 7 7 7 7 7 7 7 8 8 9 10 9 8 10 12 13 13 13 13 14 14 14 15 15 15 16 16 17 18 19 20
21 19 19 17 16 15 13 12 12 12 12 12 11 11 10 8 7 7 6 5 3 1 1 3 5 6 8 9 10 11 11 10 9 8 8 8 8 9 9 9 9 9 9 9 9 9 9 8 8 7 7 7 7 7 8 8 8 7 7 8 8 8 8 9 8 9 9 10 10 11 11 11 12 13 13 13 14 16 16 17 18 18 19 19 19 20 20 22
22 21 20 18 16 14 13 12 13 13 13 12 12 12 10 9 8 8 7 6 4 2 0 2 4 6 7 9 10 10 10 10 9 8 7 7 7 7 8 8 8 9 9 9 9 8 8 8 8 8 7 7 8 8 8 8 8 8 8 8 8 9 9 10 10 10 11 11 11 12 12 11 11 13 14 14 15 16 17 17 18 20 21 21 22 22 23 24
23 21 20 19 17 15 15 14 14 13 13 13 12 12 11 10 10 9 8 7 4 2 1 2 3 5 7 8 9 10 10 9 8 7 6 6 6 6 7 8 8 8 8 8 8 9 9 9 9 9 9 9 9 9 8 9 8 6 7 8 9 10 11 11 11 11 11 12 12 13 13 13 12 13 14 15 16 16 17 17 18 19 20 22 23 24 25 25
24 22 21 20 18 17 16 14 14 14 13 13 12 12 12 11 11 10 9 7 5 3 2 2 3 5 6 7 8 9 9 8 7 6 5 5 5 6 7 7 7 7 8 8 9 9 10 10 11 11 12 11 10 10 10 10 7 6 9 10 10 11 13 13 12 10 10 11 11 12 13 13 13 14 14 15 15 16 17 17 18 19 20 21 22 23 24 25
Wind_Direction
172 174 189 220 248 271 298 322 329 325 334 346 356 13 38 51 53 52 50 47 44 42 42 41 41 40 39 39 38 38 38 39 40 40 41 45 49 53 61 71 83 93 102 109 114 119 119 123 132 139 144 150 159 159 165 167 170 179 165 158 173 181 171 165 201 229 225 216 219 230 238 236 236 235 234 240 243 241 245 250 250 247 251 259 265 265 262 265
161 160 162 163 160 120 72 46 17 356 346 341 9 49 58 59 56 53 50 47 45 44 43 44 45 44 43 42 40 39 38 39 41 43 47 50 52 55 61 69 80 94 104 111 117 116 113 121 127 134 139 141 153 159 165 168 168 170 160 153 197 181 153 163 223 241 235 225 221 225 234 237 235 235 235 238 242 244 241 239 240 242 248 256 262 266 269 274
150 148 141 132 116 93 78 64 49 33 353 115 74 69 65 61 56 53 50 48 47 46 46 47 49 49 49 48 46 42 38 40 43 44 50 53 55 59 64 70 79 92 102 112 119 115 118 126 127 136 140 138 151 158 161 166 166 161 151 172 209 175 151 175 223 245 233 224 232 233 236 238 232 228 230 233 234 239 240 238 239 241 250 257 262 268 277 276
141 135 125 115 101 90 84 83 90 105 116 97 80 73 67 61 58 56 54 52 50 49 48 49 52 54 55 54 51 43 39 42 44 44 50 56 59 63 67 73 83 92 98 107 113 113 121 127 132 140 129 132 156 151 155 156 154 159 158 201 194 146 153 213 218 233 229 222 239 251 243 237 228 223 225 227 228 236 244 249 251 253 260 266 269 274 281 278
134 126 119 111 102 99 98 99 101 101 96 87 80 73 67 63 61 60 58 56 54 51 50 51 53 55 57 58 56 50 47 47 45 46 48 54 61 67 73 78 88 97 102 108 110 110 117 129 138 123 98 136 168 146 154 154 150 172 178 178 153 114 176 251 231 223 227 215 232 261 251 230 223 232 232 226 230 237 243 252 256 259 268 271 271 271 273 275
129 124 119 113 109 107 104 102 100 95 91 85 78 72 67 65 63 61 60 58 55 53 50 52 54 55 57 59 61 57 52 50 49 48 46 53 62 68 76 83 92 99 111 121 115 112 116 125 126 102 99 188 167 149 155 158 158 169 163 135 125 104 196 242 238 224 223 212 229 258 251 223 222 245 251 241 240 232 224 234 245 251 260 263 259 255 254 269
129 125 121 117 116 111 107 104 100 95 89 83 76 70 67 65 63 62 60 59 57 55 53 54 55 55 57 57 62 61 54 53 54 51 47 54 63 69 76 83 90 98 122 131 116 111 102 89 90 95 100 145 146 159 150 159 169 130 308 184 133 134 226 230 230 221 203 205 234 253 254 239 233 242 250 260 255 222 172 179 208 243 258 261 257 247 239 254
130 127 125 124 120 115 111 107 100 94 86 79 73 69 67 64 62 60 59 59 59 58 56 55 55 54 57 58 60 60 53 52 56 55 53 57 63 70 74 77 85 97 123 129 119 108 84 70 89 106 116 186 175 175 153 155 165 132 238 227 162 199 231 230 226 225 213 201 237 263 268 261 248 238 235 254 232 176 137 149 164 359 278 249 253 263 251 251
131 132 131 127 122 118 114 107 98 90 83 77 73 69 66 63 60 59 59 59 60 59 57 56 56 55 57 58 58 57 52 52 57 59 61 62 65 70 72 73 78 89 107 117 117 107 99 121 128 111 144 167 166 174 147 129 172 188 206 211 195 212 229 236 227 215 214 204 245 269 261 241 243 238 219 204 172 152 137 132 125 99 102 127 109 72 75 85
136 137 133 128 124 119 112 103 95 88 83 79 75 71 67 63 61 60 59 60 59 58 57 57 56 56 56 55 57 59 54 54 59 60 64 66 68 72 73 75 75 77 96 104 102 105 119 137 127 113 115 108 126 150 123 116 211 193 165 172 213 228 230 240 233 209 207 187 236 272 261 231 229 237 222 198 148 119 118 111 117 131 123 127 97 72 85 89
140 139 134 129 124 117 108 99 92 88 85 82 79 75 71 67 64 62 60 59 57 57 57 58 56 55 55 53 57 60 56 56 59 60 63 66 69 73 75 78 78 71 84 95 91 102 110 122 121 109 93 115 145 124 99 186 198 162 135 148 228 244 224 215 237 226 212 156 182 245 252 251 257 266 247 201 124 91 109 107 106 115 71 64 69 70 83 81
142 140 134 128 121 111 103 97 93 90 88 86 83 80 75 71 68 64 61 58 57 58 57 57 55 54 54 53 57 60 56 56 59 61 62 65 68 73 76 79 82 77 78 88 95 100 103 116 107 89 93 142 147 97 229 194 169 151 144 155 222 251 251 191 208 246 243 191 194 213 224 244 262 259 234 184 110 98 131 116 105 98 70 60 66 69 66 69
143 140 133 125 115 106 101 97 95 93 91 90 87 84 79 75 71 67 65 61 59 59 59 58 55 53 54 54 56 58 56 56 57 59 60 63 67 72 74 76 81 83 82 83 92 96 94 105 95 87 98 97 106 221 184 158 151 165 161 181 218 257 284 253 188 234 234 216 194 198 212 231 257 253 241 254 282 208 140 117 115 109 94 78 71 69 60 67
144 139 131 121 112 105 102 99 97 96 95 94 91 87 83 78 74 70 67 65 61 60 59 58 55 54 56 56 56 57 57 57 59 60 59 58 62 70 72 73 76 80 84 83 88 92 89 94 92 97 115 90 222 180 124 144 173 164 177 224 252 278 279 287 296 270 247 238 221 219 217 218 262 264 250 270 264 179 135 104 112 99 94 81 63 65 61 65
142 136 127 118 111 106 104 102 100 99 99 97 94 90 86 81 76 72 68 65 64 63 60 60 57 53 59 61 54 56 58 59 62 62 62 60 56 67 73 73 75 76 78 82 86 87 90 97 88 71 278 150 165 137 129 182 171 162 199 226 263 270 262 284 285 271 271 264 243 239 235 232 252 260 262 274 250 178 146 120 103 85 85 72 46 47 45 40
140 134 125 117 111 108 106 104 104 103 102 100 96 93 88 84 80 76 71 67 65 65 64 64 58 50 57 61 53 55 58 59 64 62 64 65 55 63 75 75 74 74 73 76 78 78 82 87 87 96 176 168 115 160 179 182 164 186 214 203 212 246 260 282 273 255 261 250 235 245 260 269 256 255 265 233 183 151 125 109 72 77 81 73 56 29 12 11
139 132 124 117 113 110 109 107 106 106 104 102 100 97 92 87 82 78 75 71 68 68 67 65 60 54 56 57 54 52 52 54 61 63 66 69 64 64 71 75 74 71 66 64 62 59 65 69 62 111 165 180 204 220 195 184 189 201 212 204 203 218 233 275 266 240 240 246 260 273 272 289 303 311 276 178 136 114 112 106 4 65 55 54 56 37 26 8
138 131 123 118 115 113 111 110 109 108 105 104 102 99 95 90 83 76 74 72 70 68 66 60 58 57 54 51 55 51 49 55 56 58 65 68 71 74 75 79 80 78 67 52 46 32 33 66 291 326 167 164 177 235 232 230 220 215 223 219 208 199 193 230 248 232 235 249 268 269 260 283 311 319 297 282 30 310 214 178 243 235 346 360 358 2 12 1
137 130 124 120 117 115 114 113 113 110 108 107 104 100 94 87 82 77 72 71 70 67 64 61 57 57 54 50 58 60 57 62 58 52 59 66 71 79 79 73 69 70 54 23 27 10 313 289 20 15 6 104 230 249 253 275 260 232 233 229 221 210 205 224 239 234 233 244 257 259 259 268 283 297 290 293 307 291 265 256 259 246 280 345 347 354 1 354
136 130 125 121 118 118 116 116 115 112 110 107 105 103 95 86 80 77 71 68 67 63 63 63 62 61 58 48 52 70 69 61 55 45 46 59 64 65 59 46 42 39 23 6 359 334 325 338 24 15 326 280 268 256 245 263 269 253 234 230 231 225 225 236 242 236 226 233 248 254 260 266 265 270 269 269 277 281 286 289 305 323 334 328 331 352 1 353
136 131 127 123 121 120 118 118 116 111 108 103 99 100 96 90 84 79 73 69 66 61 61 63 64 62 57 47 36 57 66 55 45 37 34 46 57 55 40 30 37 18 2 16 275 287 0 1 346 329 309 289 284 272 241 247 260 262 250 245 239 228 234 236 221 214 222 232 247 255 263 270 269 262 252 250 262 284 298 295 300 311 315 306 312 358 11 360
138 132 128 125 123 122 120 120 118 112 104 98 96 93 92 91 86 82 74 69 68 64 64 64 64 60 53 50 36 33 53 49 28 27 26 25 42 48 29 32 52 13 352 23 317 302 335 340 334 333 315 303 299 279 254 253 255 257 257 260 253 236 235 228 214 226 246 245 248 254 262 267 262 258 261 260 267 307 318 298 292 299 317 315 316 348 6 10
138 133 129 127 124 123 123 121 119 113 102 93 88 86 90 92 86 80 72 68 70 66 61 57 57 53 49 53 44 38 52 49 21 26 27 25 36 39 28 35 38 26 28 18 344 329 332 330 337 336 317 316 321 287 263 251 242 254 253 249 250 243 238 237 238 244 240 240 248 250 254 257 250 246 249 254 276 309 319 300 294 306 315 300 294 322 354 12
139 134 130 128 125 123 121 121 118 110 100 89 81 79 86 92 88 82 73 64 64 63 56 51 50 46 44 49 50 52 58 52 33 33 33 36 46 46 49 51 24 23 30 14 6 5 346 338 341 347 347 347 345 306 251 202 220 258 250 233 234 237 240 238 233 226 218 227 241 243 244 249 252 249 239 234 252 281 303 304 290 284 277 268 272 304 350 2
140 135 132 128 125 123 121 121 117 107 98 88 81 78 82 90 92 87 76 60 56 59 57 54 53 49 46 46 52 55 53 47 42 40 39 43 47 43 55 66 39 23 13 17 22 0 355 354 349 2 18 23 40 49 53 155 207 276 235 225 221 219 226 223 216 218 221 219 225 234 239 245 254 259 254 229 224 241 263 262 245 243 246 246 264 318 347 352
141 137 134 129 125 122 119 118 118 114 103 92 85 84 86 88 90 85 74 60 51 48 45 47 45 45 48 46 49 53 46 40 39 37 39 44 44 42 52 52 32 33 360 1 22 5 6 10 10 34 41 42 59 58 43 47 43 56 138 183 171 174 192 202 203 209 212 203 211 223 227 239 249 252 255 240 222 222 223 225 224 232 249 258 316 338 342 345
144 141 137 133 129 125 121 117 116 114 105 97 93 94 93 87 86 84 73 60 52 42 40 43 41 44 49 47 50 52 42 33 31 37 41 45 45 43 53 51 28 43 27 360 28 30 28 29 38 57 57 52 58 60 57 60 67 80 89 96 114 146 165 168 176 192 196 193 206 211 212 245 262 246 247 252 244 236 233 241 245 267 295 310 337 341 338 342
148 146 143 138 133 130 127 124 119 107 101 100 97 98 99 88 83 82 73 59 53 50 50 51 50 57 59 55 55 53 45 35 34 43 44 47 49 46 58 69 55 49 47 39 44 43 44 44 48 60 65 62 60 63 68 70 76 84 84 83 91 113 132 140 155 172 183 190 204 206 208 244 264 243 247 261 264 270 285 306 309 300 312 328 340 343 339 341
153 151 148 142 137 135 132 130 130 115 105 105 103 100 98 86 74 71 75 67 55 50 50 54 54 57 60 54 47 45 43 41 41 46 49 52 53 51 56 65 67 62 59 59 58 54 54 53 50 55 65 69 67 66 68 71 76 82 83 82 83 88 105 126 141 151 165 184 194 197 218 244 248 233 239 251 265 282 295 311 318 316 329 338 339 342 340 336
157 155 152 147 143 141 138 136 135 126 116 109 105 104 96 85 74 73 79 71 58 51 50 55 52 50 57 54 42 37 40 44 46 49 54 55 51 48 52 59 68 68 60 56 58 58 57 58 55 51 59 71 73 69 68 69 74 79 79 79 79 77 85 109 125 129 132 161 181 186 217 245 253 250 245 249 266 275 276 292 309 317 325 331 334 337 333 328
161 161 157 152 149 144 143 140 132 131 126 114 109 102 88 84 81 75 75 68 60 59 58 59 56 53 58 60 50 42 41 45 49 49 52 54 49 45 46 50 61 68 62 56 58 59 56 54 58 61 63 73 75 72 72 70 74 82 80 76 75 70 73 94 106 106 107 140 171 184 206 230 257 265 251 251 266 272 277 293 309 313 313 319 328 327 320 321
166 166 162 156 153 149 147 146 139 133 126 119 112 97 87 92 85 72 68 71 70 69 67 65 63 61 62 64 59 48 43 47 49 49 50 52 52 47 43 41 45 56 60 50 40 47 54 51 57 69 72 70 74 76 77 75 75 82 82 77 70 66 75 84 77 73 91 119 142 154 241 186 254 283 267 267 278 283 287 295 297 294 300 318 327 317 311 319
169 168 164 159 155 153 153 151 147 139 127 117 104 95 97 96 85 77 74 76 77 76 74 72 70 67 62 60 57 48 43 47 49 52 53 53 54 52 49 47 43 44 52 56 44 34 47 56 58 65 69 67 70 76 82 83 77 72 73 73 63 66 84 79 56 54 63 72 88 41 7 10 331 317 307 304 302 286 271 272 274 288 309 317 307 300 303 313
172 169 166 162 159 158 158 158 155 145 128 115 105 105 108 92 81 86 91 84 82 79 76 78 76 69 60 55 54 48 44 47 48 52 54 55 56 55 54 52 48 46 47 60 80 49 39 52 60 64 69 68 66 69 81 89 83 73 75 76 68 69 76 58 41 58 64 60 35 349 340 338 331 318 313 307 288 271 268 273 276 300 321 308 294 297 304 309
173 170 167 165 164 163 161 161 158 146 130 119 116 117 113 97 88 93 95 90 87 78 70 68 69 65 57 52 51 47 44 43 42 46 49 50 53 54 55 53 51 53 49 47 79 73 57 61 67 68 71 73 70 68 74 76 75 81 86 77 73 76 59 44 61 73 64 64 9 331 316 314 316 310 304 289 273 303 309 299 302 314 304 291 294 303 306 312
174 170 170 169 167 168 165 162 159 149 137 127 125 123 111 104 102 97 92 91 89 79 67 56 55 59 55 47 45 41 39 36 34 40 44 44 48 51 54 58 55 56 58 59 71 78 79 80 77 75 75 78 78 76 72 66 68 79 82 73 82 92 68 55 73 72 51 33 344 326 305 314 325 323 320 315 316 324 311 301 308 305 287 283 290 295 300 309
175 174 174 171 169 172 169 163 161 154 141 128 122 118 112 109 106 99 93 89 85 81 75 65 58 58 55 46 38 31 27 27 28 34 36 35 40 46 50 59 60 58 58 59 65 73 73 75 80 82 80 81 83 86 84 77 73 74 81 91 97 95 86 74 77 84 69 360 345 339 319 322 327 320 326 330 318 310 300 295 290 286 285 286 289 293 297 303
177 178 177 171 169 176 173 167 166 155 141 132 124 118 114 110 105 99 93 86 83 81 80 78 68 56 50 45 37 27 23 25 25 25 26 28 35 45 49 55 60 61 60 55 55 59 60 67 79 82 83 84 87 93 95 94 94 95 102 110 100 83 89 85 76 82 38 335 335 328 308 318 326 309 303 303 295 288 281 280 278 277 280 283 285 290 295 301
178 181 179 170 170 178 177 173 171 160 149 138 128 126 125 117 108 102 94 85 82 79 75 75 68 55 48 43 37 30 26 28 27 22 24 26 30 38 47 55 60 62 62 61 57 53 53 64 76 79 81 83 82 88 98 101 105 112 119 126 124 109 107 116 123 45 356 332 313 298 294 300 304 296 292 284 279 274 270 274 279 281 281 283 287 291 297 300
180 182 179 171 171 178 180 179 177 169 159 142 132 145 146 132 120 109 98 87 80 77 70 66 61 54 49 42 36 33 31 31 31 28 28 27 26 31 38 46 56 61 60 60 59 54 47 52 67 75 75 78 77 74 98 112 123 131 129 135 146 153 168 175 177 209 285 299 297 292 288 287 283 283 288 284 277 274 276 278 280 282 284 285 288 292 295 294
181 182 179 173 171 179 183 182 181 178 170 155 151 161 156 144 139 128 109 94 81 74 65 59 56 51 47 42 36 34 35 36 35 33 30 29 28 27 32 38 44 54 58 54 54 55 46 43 57 69 68 70 76 77 101 135 162 178 183 189 180 174 180 191 202 215 228 254 276 278 279 284 283 279 279 280 281 281 280 280 281 281 282 283 285 288 289 288
183 182 179 174 175 181 185 184 182 183 181 172 165 165 162 155 153 147 128 109 84 73 61 53 52 47 43 40 36 34 36 37 37 36 33 32 32 29 31 37 38 45 56 54 51 56 49 42 52 62 63 62 65 75 96 137 177 194 202 201 200 203 206 220 224 218 232 242 254 270 275 275 276 278 278 278 281 283 283 282 283 281 280 281 280 281 283 286
186 184 179 177 180 184 186 187 187 187 187 183 175 170 170 167 163 159 145 131 100 72 56 45 45 44 40 39 35 33 35 36 35 36 35 34 34 34 35 38 40 44 49 49 50 52 47 41 48 55 60 66 63 57 71 98 162 186 203 202 210 222 228 238 237 235 254 249 225 257 268 266 267 272 278 279 279 283 288 288 286 284 283 282 280 279 279 283
189 184 179 179 186 189 189 190 189 188 189 190 186 179 176 177 177 172 158 145 121 70 48 39 40 40 38 38 35 32 33 34 34 35 36 36 35 35 37 39 42 45 44 44 45 42 36 39 45 41 39 52 53 36 31 39 37 21 319 269 253 249 245 243 235 237 259 249 226 246 258 264 273 280 285 285 283 282 285 287 288 287 284 283 284 286 286 288
193 184 180 185 189 190 193 197 194 189 188 192 193 190 186 186 185 182 173 160 143 77 43 33 34 36 36 35 33 32 32 33 35 36 37 40 40 39 40 41 43 46 47 46 44 40 36 38 42 37 29 31 30 19 12 11 7 4 355 332 293 274 264 252 246 252 257 241 233 251 263 269 276 283 289 291 295 295 289 290 291 291 292 293 294 296 296 297
198 187 185 189 192 190 194 199 197 191 191 194 197 198 196 195 195 196 186 173 161 118 48 29 28 31 31 30 30 32 33 34 36 39 41 44 46 45 45 46 45 46 46 42 40 37 35 36 36 34 28 22 18 15 13 5 357 355 346 326 299 284 278 269 267 274 276 269 261 266 274 279 280 283 287 291 296 298 296 298 297 295 298 299 300 303 303 304
202 195 190 191 193 195 197 198 193 191 194 196 199 201 201 200 202 208 202 184 175 146 55 27 22 24 23 24 27 29 31 35 37 40 44 46 48 50 51 51 50 50 48 44 42 34 31 32 32 29 25 19 14 14 14 7 358 352 340 326 315 304 297 290 287 284 281 287 293 282 278 285 290 293 294 293 294 293 294 297 299 300 303 304 306 307 308 309
202 198 195 193 193 193 196 198 195 194 197 198 201 205 206 205 209 213 211 200 190 158 59 21 13 15 15 17 23 25 28 33 35 40 44 46 47 50 51 52 51 51 49 48 46 39 35 33 29 26 23 18 12 8 5 1 359 355 343 332 324 314 308 301 296 292 287 291 297 290 283 288 294 298 300 301 302 302 301 302 304 305 307 308 309 309 309 310
202 198 198 198 197 194 193 195 195 196 198 199 203 206 207 210 215 219 217 209 201 183 57 14 4 6 7 9 16 22 26 28 31 37 41 42 44 45 45 46 46 44 44 44 43 41 40 35 30 28 26 20 14 8 1 356 353 349 343 338 332 322 314 308 304 303 300 300 300 295 292 296 300 301 303 306 308 308 309 311 312 312 311 311 310 310 311 311
203 200 198 199 200 197 192 192 194 195 197 200 204 208 210 214 219 222 219 214 206 199 347 354 351 355 359 3 9 15 21 24 27 31 37 38 39 38 37 37 37 36 34 35 35 34 32 30 27 23 22 19 12 7 2 354 345 338 337 336 331 327 323 317 315 316 314 314 311 306 306 310 308 306 308 310 310 309 310 312 313 313 314 315 314 314 313 313
202 201 200 199 199 197 194 194 195 194 196 200 203 208 212 217 223 224 223 219 212 209 245 316 336 346 351 357 3 8 13 19 22 24 31 35 32 28 28 28 29 29 28 27 27 26 22 20 19 16 15 13 9 6 2 353 343 337 339 335 326 325 326 321 318 320 320 320 318 315 316 318 314 310 309 309 309 310 311 313 315 314 314 314 314 313 313 313
200 200 201 200 198 198 197 195 195 196 196 199 203 209 214 219 225 226 224 222 219 221 247 290 320 336 343 350 357 2 4 9 14 16 21 24 22 19 19 20 22 24 24 22 19 18 16 14 12 11 9 8 6 1 354 348 343 343 345 342 335 329 325 321 319 317 316 316 316 317 320 320 317 314 312 312 312 313 316 320 320 315 313 313 312 312 312 312
Height
5798 5799 5800 5800 5800 5800 5800 5799 5799 5799 5799 5799 5799 5799 5797 5795 5792 5790 5788 5787 5786 5785 5784 5783 5781 5780 5778 5776 5775 5773 5771 5769 5767 5766 5765 5763 5761 5760 5759 5758 5758 5758 5758 5758 5760 5761 5762 5765 5768 5770 5772 5775 5777 5779 5781 5783 5786 5789 5790 5792 5796 5798 5800 5803 5806 5802 5799 5800 5802 5804 5806 5807 5807 5808 5808 5809 5811 5810 5810 5811 5812 5813 5814 5814 5813 5811 5811 5813
5798 5798 5799 5799 5800 5799 5799 5799 5799 5799 5799 5800 5800 5799 5797 5794 5792 5790 5788 5788 5787 5786 5785 5784 5782 5781 5779 5777 5776 5774 5773 5771 5769 5769 5766 5764 5763 5763 5762 5762 5761 5761 5761 5761 5762 5763 5765 5768 5770 5772 5774 5776 5779 5781 5783 5784 5786 5789 5791 5794 5796 5798 5799 5802 5802 5797 5797 5799 5801 5804 5804 5805 5806 5807 5809 5810 5809 5807 5807 5809 5810 5812 5813 5813 5811 5810 5812 5814
5797 5798 5798 5799 5799 5799 5799 5799 5799 5799 5800 5801 5800 5798 5796 5793 5791 5790 5789 5789 5789 5788 5787 5785 5783 5782 5780 5779 5777 5776 5775 5773 5772 5770 5767 5766 5766 5765 5765 5765 5764 5765 5765 5766 5766 5764 5767 5771 5772 5775 5776 5778 5781 5783 5785 5787 5788 5790 5792 5795 5796 5796 5797 5799 5797 5793 5795 5799 5801 5804 5804 5804 5806 5807 5809 5808 5807 5806 5806 5808 5810 5811 5812 5812 5811 5811 5812 5813
5797 5797 5798 5798 5798 5798 5799 5800 5800 5801 5802 5801 5799 5797 5794 5792 5791 5790 5791 5790 5790 5789 5788 5786 5785 5783 5782 5780 5778 5777 5777 5775 5773 5771 5770 5769 5768 5768 5767 5767 5767 5768 5768 5769 5770 5767 5769 5773 5775 5776 5777 5780 5783 5784 5786 5788 5791 5793 5793 5794 5796 5797 5798 5796 5795 5792 5794 5801 5803 5802 5802 5802 5805 5807 5808 5807 5806 5807 5807 5809 5810 5810 5811 5812 5812 5812 5812 5813
5796 5797 5798 5798 5798 5799 5800 5801 5801 5802 5801 5800 5798 5795 5793 5792 5792 5792 5792 5792 5791 5790 5789 5788 5786 5785 5783 5781 5780 5779 5778 5776 5774 5773 5772 5771 5771 5770 5769 5769 5769 5770 5770 5772 5773 5771 5773 5776 5777 5778 5780 5783 5785 5786 5788 5789 5791 5794 5794 5796 5796 5798 5801 5797 5793 5793 5795 5801 5802 5800 5800 5801 5803 5805 5807 5807 5807 5807 5808 5809 5809 5810 5811 5812 5812 5812 5812 5813
5796 5797 5798 5798 5799 5800 5801 5802 5802 5802 5800 5798 5796 5794 5793 5793 5793 5794 5794 5793 5792 5791 5790 5789 5788 5786 5784 5782 5781 5780 5779 5778 5776 5775 5774 5773 5773 5772 5771 5771 5772 5771 5773 5774 5773 5774 5776 5779 5779 5780 5784 5787 5787 5788 5789 5791 5793 5795 5796 5797 5798 5800 5800 5794 5789 5793 5799 5801 5801 5799 5800 5802 5804 5805 5806 5807 5807 5807 5808 5809 5809 5810 5810 5810 5810 5811 5813 5813
5796 5797 5798 5799 5800 5801 5802 5802 5802 5801 5799 5797 5795 5794 5794 5795 5796 5796 5795 5795 5794 5793 5792 5791 5789 5787 5786 5785 5783 5781 5780 5779 5778 5777 5776 5776 5775 5774 5774 5773 5774 5773 5775 5776 5774 5776 5779 5781 5782 5783 5787 5789 5789 5790 5792 5794 5795 5797 5798 5798 5800 5799 5795 5790 5789 5796 5802 5802 5800 5799 5801 5803 5804 5805 5806 5806 5807 5807 5807 5808 5809 5809 5809 5809 5810 5811 5813 5813
5796 5798 5799 5800 5801 5802 5802 5802 5801 5799 5797 5796 5795 5795 5796 5797 5798 5797 5797 5796 5795 5795 5794 5792 5790 5789 5787 5786 5785 5782 5782 5781 5780 5779 5779 5778 5777 5776 5776 5776 5776 5775 5777 5777 5776 5778 5780 5782 5786 5786 5789 5791 5792 5793 5793 5795 5797 5799 5800 5799 5799 5794 5790 5791 5795 5800 5802 5802 5802 5801 5802 5804 5804 5804 5805 5805 5807 5807 5807 5808 5809 5809 5810 5810 5811 5812 5813 5813
5797 5799 5800 5801 5802 5802 5802 5801 5799 5797 5796 5796 5796 5797 5798 5799 5799 5799 5798 5798 5797 5796 5795 5793 5792 5791 5789 5788 5785 5783 5784 5784 5782 5782 5781 5780 5779 5778 5778 5778 5778 5778 5778 5779 5778 5780 5781 5784 5787 5787 5789 5791 5793 5794 5794 5796 5799 5800 5800 5799 5796 5792 5792 5795 5798 5800 5802 5802 5802 5802 5802 5804 5805 5805 5805 5806 5807 5807 5806 5808 5809 5810 5811 5811 5812 5812 5813 5814
5799 5800 5801 5801 5802 5802 5801 5799 5797 5796 5796 5797 5798 5799 5800 5801 5801 5800 5800 5799 5798 5797 5796 5794 5793 5792 5790 5789 5787 5785 5786 5786 5784 5784 5783 5782 5782 5781 5781 5780 5780 5781 5780 5780 5781 5782 5783 5786 5787 5789 5791 5792 5794 5795 5795 5797 5799 5798 5798 5799 5795 5793 5796 5797 5798 5800 5802 5802 5800 5801 5802 5803 5806 5807 5807 5807 5807 5807 5807 5809 5810 5811 5812 5813 5813 5812 5813 5814
5800 5801 5801 5802 5802 5801 5799 5797 5797 5797 5798 5799 5800 5801 5802 5802 5802 5802 5801 5800 5799 5798 5797 5795 5794 5793 5791 5790 5788 5788 5789 5788 5787 5786 5785 5784 5784 5783 5783 5783 5782 5783 5783 5781 5783 5785 5785 5787 5788 5789 5793 5795 5796 5797 5797 5798 5798 5797 5799 5799 5796 5795 5797 5799 5798 5799 5801 5801 5800 5802 5802 5803 5805 5806 5807 5807 5807 5807 5808 5810 5810 5811 5812 5813 5814 5814 5814 5814
5801 5802 5802 5802 5801 5799 5798 5797 5798 5799 5799 5800 5802 5803 5803 5804 5803 5803 5802 5801 5800 5799 5798 5796 5795 5794 5792 5791 5790 5790 5791 5789 5789 5788 5787 5786 5786 5785 5785 5785 5784 5785 5786 5783 5784 5786 5787 5788 5789 5789 5792 5795 5797 5798 5798 5798 5797 5798 5800 5801 5798 5796 5797 5799 5800 5800 5801 5802 5802 5804 5804 5805 5806 5805 5805 5806 5807 5808 5809 5810 5811 5812 5812 5813 5813 5814 5814 5814
5801 5802 5802 5801 5800 5798 5798 5799 5799 5800 5801 5803 5804 5804 5805 5805 5804 5804 5803 5802 5801 5800 5798 5797 5796 5795 5794 5793 5793 5793 5792 5791 5790 5789 5789 5788 5787 5787 5787 5787 5786 5786 5787 5786 5786 5787 5788 5790 5789 5791 5794 5796 5797 5798 5798 5798 5799 5799 5801 5801 5800 5798 5797 5799 5800 5801 5802 5803 5803 5804 5805 5806 5806 5805 5804 5805 5807 5807 5808 5810 5811 5813 5813 5813 5813 5813 5814 5814
5802 5802 5801 5800 5799 5798 5799 5800 5801 5801 5803 5804 5805 5805 5806 5806 5805 5804 5804 5803 5802 5801 5800 5798 5797 5797 5795 5795 5796 5795 5794 5793 5792 5791 5790 5790 5789 5789 5788 5789 5789 5788 5788 5789 5789 5789 5790 5791 5791 5794 5796 5797 5797 5797 5798 5800 5800 5801 5802 5801 5801 5800 5799 5799 5800 5800 5801 5802 5803 5803 5806 5807 5806 5805 5804 5804 5806 5806 5807 5809 5811 5813 5814 5814 5814 5813 5814 5815
5802 5802 5801 5800 5799 5799 5800 5801 5802 5803 5805 5806 5806 5806 5806 5806 5806 5805 5805 5804 5803 5801 5801 5799 5799 5799 5796 5797 5798 5797 5796 5795 5793 5792 5791 5791 5791 5790 5790 5790 5790 5790 5790 5790 5791 5791 5792 5792 5792 5796 5798 5797 5797 5797 5799 5801 5801 5802 5803 5803 5803 5801 5801 5801 5801 5801 5800 5801 5802 5802 5804 5806 5807 5806 5804 5803 5804 5804 5806 5808 5810 5813 5814 5814 5814 5813 5812 5812
5802 5802 5801 5800 5799 5800 5801 5802 5804 5805 5806 5807 5807 5807 5807 5807 5807 5806 5805 5804 5803 5802 5802 5801 5800 5800 5798 5798 5800 5798 5798 5796 5794 5794 5793 5793 5793 5792 5791 5792 5792 5792 5792 5792 5793 5793 5793 5793 5793 5796 5798 5798 5798 5797 5798 5800 5800 5802 5802 5802 5804 5803 5801 5801 5800 5802 5802 5802 5803 5802 5802 5804 5806 5807 5805 5803 5805 5806 5806 5809 5811 5813 5814 5814 5814 5813 5812 5811
5802 5801 5801 5800 5800 5801 5803 5804 5805 5807 5807 5808 5808 5808 5808 5808 5808 5807 5806 5805 5804 5803 5803 5802 5801 5801 5800 5800 5801 5800 5799 5797 5796 5796 5795 5795 5794 5794 5793 5794 5793 5793 5794 5794 5794 5794 5794 5794 5794 5795 5795 5796 5798 5797 5797 5798 5798 5799 5799 5799 5801 5802 5802 5800 5800 5801 5802 5802 5803 5803 5803 5803 5805 5807 5805 5804 5806 5808 5808 5810 5811 5811 5813 5814 5814 5814 5813 5812
5801 5801 5801 5801 5802 5803 5804 5805 5807 5808 5808 5809 5809 5809 5809 5808 5808 5807 5806 5806 5805 5804 5804 5803 5803 5802 5802 5802 5802 5801 5800 5798 5798 5798 5797 5796 5796 5796 5796 5796 5795 5795 5795 5795 5795 5796 5794 5794 5794 5794 5794 5795 5798 5797 5796 5797 5797 5797 5798 5798 5799 5799 5800 5799 5799 5801 5802 5802 5802 5802 5804 5804 5805 5806 5805 5804 5806 5809 5810 5811 5811 5811 5811 5811 5812 5813 5813 5813
5801 5802 5802 5802 5803 5804 5805 5807 5808 5809 5810 5810 5810 5810 5810 5809 5808 5808 5807 5806 5806 5805 5805 5804 5804 5804 5803 5803 5803 5802 5801 5800 5800 5799 5799 5798 5798 5798 5797 5797 5796 5795 5795 5795 5795 5796 5795 5794 5794 5794 5794 5796 5797 5796 5796 5794 5794 5796 5796 5797 5798 5798 5799 5798 5798 5801 5803 5803 5801 5800 5804 5806 5807 5807 5806 5805 5806 5807 5809 5810 5810 5810 5811 5811 5811 5812 5812 5812
5802 5802 5802 5803 5804 5806 5807 5808 5810 5810 5811 5811 5811 5811 5810 5809 5809 5808 5808 5807 5806 5806 5806 5806 5806 5806 5805 5805 5804 5803 5803 5801 5801 5801 5800 5799 5799 5798 5797 5797 5796 5796 5796 5796 5797 5797 5796 5796 5795 5795 5795 5795 5795 5796 5796 5792 5791 5794 5795 5796 5797 5797 5798 5797 5798 5801 5802 5802 5801 5800 5804 5806 5806 5808 5807 5806 5806 5806 5806 5807 5808 5809 5810 5811 5811 5812 5812 5811
5802 5803 5803 5804 5805 5807 5808 5810 5811 5811 5812 5812 5812 5811 5810 5810 5809 5808 5809 5808 5807 5807 5807 5807 5807 5807 5807 5806 5805 5805 5803 5802 5802 5802 5801 5800 5799 5798 5798 5798 5797 5797 5798 5799 5798 5797 5796 5797 5796 5796 5795 5794 5794 5794 5794 5792 5790 5792 5793 5794 5796 5796 5797 5797 5798 5799 5801 5801 5800 5801 5803 5803 5805 5807 5807 5806 5806 5806 5806 5806 5807 5807 5809 5810 5811 5811 5811 5810
5803 5803 5804 5805 5807 5808 5809 5811 5812 5812 5812 5812 5812 5812 5811 5811 5810 5809 5809 5809 5809 5809 5809 5808 5808 5808 5808 5807 5806 5805 5803 5803 5804 5803 5802 5801 5799 5799 5800 5799 5799 5799 5800 5799 5798 5796 5796 5797 5796 5795 5794 5793 5793 5792 5791 5791 5791 5791 5791 5791 5793 5795 5796 5797 5798 5800 5801 5800 5800 5802 5802 5802 5804 5805 5805 5806 5807 5807 5808 5808 5808 5808 5809 5810 5810 5810 5810 5810
5803 5804 5805 5806 5808 5809 5810 5811 5812 5813 5813 5813 5812 5812 5812 5812 5811 5810 5810 5810 5810 5810 5810 5809 5809 5809 5809 5808 5806 5805 5804 5805 5805 5804 5803 5802 5800 5800 5801 5800 5800 5800 5800 5799 5798 5797 5797 5796 5795 5795 5794 5792 5791 5790 5789 5790 5791 5790 5790 5790 5791 5792 5794 5796 5798 5800 5801 5800 5800 5802 5801 5801 5803 5804 5805 5807 5807 5808 5809 5809 5809 5810 5810 5811 5811 5811 5810 5810
5804 5804 5806 5807 5809 5810 5811 5812 5813 5813 5813 5813 5813 5813 5813 5812 5811 5811 5811 5811 5811 5810 5811 5811 5810 5810 5809 5808 5808 5807 5806 5806 5806 5805 5804 5803 5802 5802 5801 5801 5801 5801 5800 5800 5799 5798 5797 5796 5796 5795 5793 5792 5790 5789 5789 5789 5790 5789 5789 5789 5790 5791 5793 5794 5796 5798 5800 5801 5800 5800 5801 5802 5802 5804 5807 5808 5809 5809 5809 5809 5809 5810 5811 5812 5813 5812 5811 5811
5804 5805 5806 5808 5809 5810 5812 5813 5813 5814 5813 5813 5813 5813 5813 5813 5812 5812 5811 5812 5811 5811 5812 5812 5811 5811 5809 5809 5808 5807 5807 5807 5807 5806 5806 5804 5803 5803 5802 5802 5802 5802 5802 5801 5800 5799 5798 5796 5796 5794 5793 5791 5790 5789 5789 5789 5789 5789 5789 5789 5790 5792 5793 5793 5795 5797 5799 5801 5801 5800 5801 5802 5802 5804 5807 5809 5810 5809 5810 5811 5811 5812 5813 5813 5812 5812 5811 5810
5805 5806 5807 5809 5810 5811 5812 5813 5814 5814 5813 5814 5814 5814 5814 5814 5813 5812 5812 5812 5812 5813 5813 5813 5812 5811 5810 5810 5809 5808 5808 5808 5808 5807 5807 5806 5805 5804 5803 5804 5803 5803 5803 5802 5802 5801 5799 5797 5796 5794 5793 5791 5791 5790 5789 5789 5788 5788 5788 5789 5790 5792 5792 5793 5794 5796 5798 5800 5801 5801 5801 5802 5803 5804 5806 5808 5809 5809 5810 5811 5812 5812 5812 5811 5811 5810 5810 5810
5805 5807 5808 5809 5810 5812 5813 5814 5814 5814 5814 5814 5814 5815 5814 5814 5813 5813 5813 5813 5813 5814 5814 5813 5812 5811 5810 5810 5810 5809 5809 5809 5809 5808 5807 5806 5806 5805 5804 5805 5805 5804 5804 5803 5802 5802 5800 5799 5797 5795 5793 5793 5792 5791 5790 5790 5789 5789 5789 5789 5790 5791 5792 5793 5794 5796 5798 5800 5800 5801 5802 5803 5803 5804 5806 5806 5808 5808 5809 5810 5810 5811 5811 5810 5810 5810 5810 5809
5806 5807 5808 5810 5811 5812 5813 5814 5814 5815 5814 5814 5815 5815 5814 5814 5813 5813 5813 5814 5815 5815 5814 5814 5813 5812 5811 5811 5811 5810 5810 5810 5810 5809 5808 5807 5807 5806 5805 5805 5806 5805 5804 5804 5804 5803 5802 5801 5799 5797 5795 5794 5793 5793 5792 5791 5790 5790 5790 5791 5791 5792 5793 5794 5795 5796 5798 5799 5800 5802 5804 5804 5804 5804 5805 5806 5806 5807 5808 5809 5810 5810 5810 5810 5810 5809 5809 5808
5806 5808 5809 5810 5811 5812 5813 5814 5815 5815 5814 5814 5815 5815 5815 5814 5814 5813 5813 5815 5815 5815 5815 5814 5813 5812 5812 5812 5811 5811 5812 5811 5810 5810 5809 5809 5808 5807 5806 5806 5806 5806 5805 5805 5805 5804 5803 5802 5801 5799 5797 5796 5795 5795 5794 5793 5793 5792 5792 5793 5793 5793 5794 5795 5796 5798 5799 5800 5801 5803 5804 5804 5805 5806 5806 5806 5807 5808 5808 5809 5810 5810 5809 5808 5808 5808 5808 5808
5807 5808 5809 5810 5811 5812 5813 5814 5815 5814 5814 5815 5815 5815 5815 5815 5815 5815 5814 5815 5816 5816 5816 5815 5814 5813 5813 5812 5813 5813 5813 5812 5812 5811 5810 5809 5809 5808 5807 5807 5807 5806 5806 5805 5805 5805 5804 5804 5803 5801 5800 5798 5797 5797 5797 5796 5796 5795 5794 5795 5795 5795 5796 5797 5798 5800 5801 5801 5802 5804 5805 5805 5806 5806 5807 5807 5808 5808 5809 5810 5810 5809 5809 5808 5807 5807 5807 5807
5808 5809 5810 5811 5812 5813 5814 5814 5815 5815 5815 5815 5815 5816 5816 5816 5816 5815 5815 5816 5816 5817 5817 5815 5815 5814 5814 5814 5814 5814 5814 5813 5813 5812 5811 5810 5810 5809 5808 5808 5807 5807 5807 5806 5806 5806 5805 5805 5804 5803 5802 5801 5799 5799 5799 5799 5799 5798 5797 5797 5797 5798 5799 5800 5801 5802 5803 5803 5803 5804 5805 5806 5806 5807 5807 5807 5808 5809 5810 5810 5809 5808 5808 5808 5808 5807 5807 5806
5808 5809 5810 5811 5812 5813 5814 5815 5815 5815 5815 5815 5816 5816 5816 5817 5816 5816 5816 5817 5818 5818 5817 5817 5816 5816 5816 5815 5815 5815 5815 5814 5813 5813 5812 5811 5810 5810 5809 5808 5808 5808 5807 5807 5807 5807 5806 5806 5805 5804 5804 5803 5801 5801 5801 5801 5801 5800 5800 5800 5800 5800 5801 5802 5802 5803 5804 5804 5804 5805 5806 5807 5807 5807 5808 5808 5808 5809 5809 5809 5809 5808 5808 5808 5808 5807 5806 5806
5808 5810 5811 5812 5812 5813 5814 5815 5815 5816 5816 5816 5817 5817 5817 5817 5816 5816 5818 5819 5819 5819 5818 5818 5818 5817 5817 5816 5816 5816 5816 5815 5814 5814 5813 5812 5811 5811 5811 5810 5809 5809 5808 5808 5809 5808 5807 5807 5806 5806 5805 5804 5803 5803 5802 5802 5802 5802 5801 5802 5802 5802 5802 5803 5804 5804 5804 5804 5804 5805 5806 5807 5807 5807 5808 5808 5808 5808 5809 5809 5809 5809 5808 5808 5808 5807 5806 5806
5809 5810 5811 5812 5813 5813 5814 5815 5816 5816 5816 5817 5817 5818 5818 5818 5817 5818 5819 5819 5820 5820 5819 5819 5819 5818 5818 5817 5817 5817 5817 5816 5815 5815 5814 5813 5813 5812 5812 5812 5811 5810 5809 5809 5809 5809 5808 5808 5807 5807 5806 5805 5805 5804 5804 5803 5803 5803 5803 5803 5803 5804 5804 5804 5805 5805 5804 5805 5805 5805 5806 5806 5806 5807 5807 5808 5808 5809 5809 5809 5808 5808 5808 5807 5807 5807 5806 5806
5808 5810 5811 5812 5813 5814 5814 5815 5816 5816 5817 5818 5818 5818 5818 5818 5819 5820 5820 5820 5820 5820 5820 5820 5819 5819 5819 5819 5818 5818 5817 5816 5816 5815 5814 5814 5814 5814 5813 5812 5811 5810 5809 5809 5809 5809 5809 5809 5809 5808 5807 5807 5807 5806 5805 5805 5805 5805 5805 5805 5805 5805 5805 5806 5806 5806 5806 5806 5807 5807 5807 5807 5807 5808 5808 5808 5808 5808 5808 5807 5807 5807 5808 5807 5806 5806 5806 5806
5808 5810 5811 5812 5813 5814 5815 5816 5816 5817 5817 5818 5818 5818 5819 5819 5820 5821 5821 5821 5821 5821 5821 5821 5820 5820 5820 5820 5819 5819 5818 5817 5816 5815 5815 5815 5815 5814 5814 5813 5812 5811 5811 5810 5810 5809 5810 5810 5809 5808 5808 5808 5808 5807 5807 5806 5806 5806 5806 5806 5806 5806 5806 5807 5807 5807 5807 5808 5808 5808 5808 5808 5807 5807 5807 5807 5807 5806 5806 5806 5806 5807 5807 5807 5807 5806 5806 5805
5808 5809 5810 5811 5813 5814 5815 5816 5816 5817 5818 5819 5819 5819 5819 5820 5821 5821 5822 5822 5822 5822 5822 5822 5822 5822 5822 5821 5820 5819 5818 5817 5817 5816 5816 5815 5815 5815 5814 5814 5813 5812 5812 5811 5811 5810 5810 5810 5809 5809 5809 5809 5808 5808 5807 5807 5807 5807 5807 5807 5807 5807 5807 5807 5808 5808 5808 5808 5808 5809 5808 5808 5808 5808 5807 5807 5807 5806 5806 5806 5807 5807 5807 5807 5806 5806 5805 5805
5808 5809 5810 5811 5813 5814 5815 5816 5817 5818 5819 5820 5820 5820 5821 5821 5822 5822 5823 5823 5823 5823 5823 5823 5823 5823 5823 5822 5821 5820 5818 5817 5817 5816 5816 5816 5815 5815 5815 5814 5814 5813 5813 5812 5811 5811 5810 5810 5810 5809 5809 5809 5809 5808 5808 5807 5808 5808 5808 5808 5808 5808 5808 5808 5808 5809 5809 5809 5809 5809 5808 5808 5808 5808 5807 5807 5807 5807 5807 5807 5807 5807 5807 5806 5806 5805 5805 5804
5808 5809 5810 5811 5813 5814 5815 5816 5817 5818 5819 5820 5820 5821 5822 5822 5823 5823 5824 5824 5824 5824 5824 5824 5824 5824 5823 5822 5821 5820 5819 5818 5817 5817 5816 5816 5815 5815 5814 5814 5814 5814 5813 5813 5812 5812 5811 5810 5810 5810 5810 5809 5809 5809 5808 5808 5808 5808 5808 5809 5808 5808 5808 5809 5809 5809 5809 5809 5809 5809 5808 5809 5808 5808 5808 5808 5808 5807 5807 5807 5807 5807 5806 5806 5805 5804 5803 5802
5807 5808 5810 5811 5813 5814 5815 5816 5817 5818 5820 5820 5820 5822 5823 5823 5823 5824 5824 5825 5825 5825 5825 5825 5825 5824 5824 5823 5822 5821 5820 5819 5818 5817 5816 5815 5815 5814 5814 5814 5814 5814 5814 5813 5813 5812 5812 5811 5810 5810 5810 5810 5810 5809 5809 5809 5809 5809 5809 5809 5808 5808 5809 5809 5809 5809 5809 5809 5809 5809 5808 5808 5808 5808 5808 5807 5807 5807 5807 5806 5806 5806 5805 5805 5804 5803 5802 5801
5807 5808 5810 5811 5812 5814 5815 5816 5817 5818 5819 5820 5821 5822 5823 5823 5824 5824 5825 5825 5826 5826 5826 5825 5825 5825 5824 5824 5823 5822 5821 5820 5819 5817 5816 5816 5815 5815 5814 5814 5814 5814 5814 5814 5813 5813 5812 5812 5810 5810 5810 5810 5810 5810 5809 5809 5809 5809 5809 5809 5808 5808 5809 5809 5809 5809 5809 5809 5809 5808 5808 5808 5808 5808 5807 5807 5807 5806 5806 5806 5805 5805 5804 5803 5803 5802 5801 5800
5807 5808 5809 5811 5812 5813 5815 5816 5817 5818 5819 5821 5822 5823 5823 5824 5824 5825 5825 5826 5826 5826 5826 5826 5826 5825 5825 5824 5823 5822 5821 5820 5819 5818 5817 5816 5815 5815 5814 5814 5814 5814 5814 5814 5814 5813 5813 5812 5811 5811 5811 5810 5810 5810 5809 5809 5809 5809 5809 5809 5809 5809 5809 5809 5809 5809 5808 5808 5808 5808 5807 5807 5807 5806 5806 5806 5806 5805 5805 5805 5804 5804 5803 5802 5802 5801 5800 5799
5807 5808 5809 5811 5812 5813 5815 5816 5817 5818 5820 5821 5822 5823 5824 5824 5825 5825 5826 5826 5827 5827 5827 5827 5826 5826 5825 5824 5824 5823 5822 5821 5820 5819 5818 5817 5816 5815 5815 5814 5814 5814 5814 5814 5814 5813 5813 5813 5812 5811 5811 5810 5810 5810 5810 5809 5809 5809 5809 5809 5809 5809 5809 5808 5808 5809 5808 5808 5808 5807 5806 5806 5806 5805 5805 5805 5805 5804 5804 5803 5803 5802 5802 5801 5800 5800 5799 5797
5806 5808 5809 5811 5812 5813 5814 5815 5816 5818 5820 5821 5822 5823 5824 5824 5825 5825 5826 5826 5827 5827 5827 5827 5827 5826 5825 5825 5824 5824 5823 5822 5821 5820 5819 5818 5817 5816 5815 5815 5814 5814 5814 5814 5814 5813 5813 5813 5812 5812 5811 5811 5810 5810 5810 5810 5809 5809 5808 5808 5808 5808 5808 5808 5808 5808 5808 5808 5807 5806 5805 5805 5805 5804 5804 5804 5804 5804 5803 5802 5802 5801 5801 5800 5799 5798 5797 5796
5806 5807 5809 5810 5812 5813 5815 5815 5816 5817 5819 5821 5822 5823 5824 5824 5825 5825 5826 5826 5827 5828 5828 5827 5827 5827 5826 5825 5825 5824 5823 5822 5821 5820 5819 5818 5818 5817 5816 5815 5815 5815 5815 5814 5814 5814 5813 5813 5812 5812 5811 5811 5811 5810 5810 5809 5809 5809 5808 5808 5808 5808 5808 5808 5807 5807 5806 5806 5806 5804 5804 5804 5804 5804 5803 5802 5802 5802 5802 5801 5801 5800 5799 5798 5797 5796 5795 5794
5805 5807 5808 5810 5811 5813 5814 5815 5816 5817 5819 5820 5822 5823 5824 5824 5825 5826 5826 5827 5827 5828 5828 5828 5827 5827 5826 5826 5825 5825 5824 5823 5822 5821 5820 5819 5819 5818 5817 5816 5816 5815 5815 5815 5815 5814 5814 5813 5813 5813 5812 5812 5811 5811 5810 5809 5809 5808 5808 5807 5807 5807 5807 5807 5806 5806 5805 5805 5805 5804 5804 5803 5803 5802 5802 5802 5801 5800 5800 5799 5799 5798 5797 5797 5796 5795 5793 5792
5805 5807 5808 5809 5811 5812 5813 5814 5816 5817 5818 5820 5821 5823 5824 5824 5825 5826 5826 5827 5827 5828 5828 5828 5828 5827 5827 5826 5826 5825 5824 5824 5823 5822 5821 5820 5820 5819 5818 5818 5817 5816 5816 5816 5815 5815 5815 5814 5814 5813 5813 5813 5812 5811 5810 5810 5809 5808 5807 5807 5807 5806 5806 5806 5805 5805 5804 5804 5804 5804 5803 5802 5801 5801 5801 5800 5800 5799 5798 5798 5797 5796 5796 5795 5794 5793 5791 5790
5804 5806 5807 5808 5810 5811 5813 5814 5815 5817 5818 5820 5821 5822 5823 5824 5825 5826 5826 5827 5827 5827 5828 5828 5828 5827 5827 5827 5826 5825 5825 5824 5823 5823 5822 5821 5821 5820 5820 5819 5818 5818 5817 5816 5816 5816 5815 5815 5814 5814 5813 5813 5812 5811 5811 5810 5809 5808 5807 5807 5806 5806 5805 5805 5804 5804 5804 5803 5803 5802 5802 5801 5800 5800 5799 5799 5798 5797 5796 5796 5795 5795 5794 5793 5792 5791 5789 5788
5803 5805 5806 5808 5809 5811 5812 5813 5815 5816 5818 5819 5821 5822 5823 5824 5825 5825 5826 5826 5827 5827 5827 5828 5828 5828 5827 5827 5826 5826 5825 5824 5824 5823 5823 5822 5821 5821 5820 5820 5819 5819 5818 5817 5817 5816 5816 5815 5814 5814 5813 5813 5812 5811 5811 5810 5809 5808 5808 5807 5806 5806 5805 5804 5804 5803 5803 5802 5801 5801 5800 5800 5799 5798 5798 5797 5796 5796 5795 5794 5794 5793 5792 5791 5790 5788 5787 5786
5802 5804 5805 5807 5809 5811 5812 5813 5814 5816 5817 5819 5820 5822 5823 5824 5824 5825 5825 5826 5827 5827 5827 5827 5827 5827 5827 5827 5826 5826 5825 5825 5824 5823 5823 5823 5822 5822 5821 5820 5820 5819 5818 5818 5817 5817 5816 5816 5815 5814 5814 5813 5812 5811 5811 5810 5809 5808 5808 5807 5806 5805 5805 5804 5803 5802 5801 5801 5800 5799 5799 5798 5798 5797 5796 5796 5795 5794 5794 5793 5792 5791 5790 5788 5787 5786 5784 5783
5801 5803 5805 5807 5809 5810 5811 5812 5814 5815 5817 5818 5820 5821 5822 5823 5824 5825 5825 5826 5826 5827 5827 5827 5827 5827 5827 5827 5826 5826 5825 5825 5824 5824 5823 5823 5822 5822 5821 5821 5820 5819 5819 5818 5818 5817 5817 5816 5815 5815 5814 5813 5812 5811 5811 5810 5809 5808 5808 5807 5806 5805 5804 5803 5802 5801 5800 5799 5799 5798 5797 5797 5796 5796 5795 5795 5794 5793 5792 5792 5791 5790 5789 5787 5785 5784 5782 5781
5801 5802 5804 5806 5808 5809 5811 5812 5813 5814 5816 5817 5819 5820 5821 5822 5823 5824 5825 5825 5826 5827 5827 5827 5827 5827 5827 5827 5827 5826 5825 5825 5825 5824 5824 5823 5823 5822 5821 5821 5820 5820 5819 5818 5818 5817 5817 5816 5815 5814 5814 5813 5812 5811 5810 5809 5808 5808 5807 5806 5805 5804 5803 5802 5801 5801 5800 5799 5798 5797 5796 5796 5795 5795 5794 5793 5793 5792 5791 5790 5789 5788 5787 5786 5784 5782 5781 5779